Location: Unspecified
(47.9110°N, 14.3980°E)
Time: 18:27:37
(UTC+00:00)

Daily predictions for brighter satellites

Satellite Brightness Start Highest point End
(mag) Time Altitude Azimuth Time Altitude Azimuth Time Altitude Azimuth
Cosmos 2219 3.9 18:22:08 10° NNW 18:27:47 60° WSW 18:33:25 10° S
CZ-4 R/B 1.2 18:25:31 10° SSE 18:29:19 72° ENE 18:33:12 10° N
Cosmos 2084 3.2 18:28:53 10° NW 18:32:49 71° NE 18:36:40 10° SE
Cosmos 2237 4.5 18:27:35 10° S 18:33:00 46° ESE 18:38:27 10° NE
Helios 1A 4.3 18:30:56 10° NE 18:33:49 19° E 18:36:41 10° SE
Okean O Rocket 2.7 18:32:11 10° SE 18:35:59 29° ENE 18:39:48 10° N
Meteor PRIRODA 4.1 18:33:35 10° SE 18:36:13 30° ENE 18:38:53 10° N
RESURS DK-1 2.8 18:32:32 10° NNW 18:36:25 44° NE 18:40:15 10° SE
Cosmos 2227 4.4 18:31:00 10° NNW 18:36:35 57° ENE 18:42:06 10° SE
CZ-4C R/B 1.8 18:33:38 10° SSW 18:37:53 62° SE 18:43:14 10° NE
Meteor 1-11 4.3 18:32:33 10° N 18:38:05 61° ENE 18:43:39 10° SSE
CSL-04 Debris 4.2 18:35:25 10° SSE 18:40:46 72° ENE 18:46:12 10° N
Cosmos 1190 Rocket 4.1 18:36:41 10° NNW 18:41:58 64° ENE 18:47:13 10° SSE
CZ-3 Stage 3 4.3 18:25:32 10° WSW 18:42:22 29° SSW 18:48:14 10° SE
USA 290 2.8 18:39:29 10° N 18:42:31 40° ENE 18:45:30 10° SE
Cosmos 1908 Rocket 3.6 18:40:24 10° S 18:44:45 59° E 18:49:09 10° NNE
Cosmos 1378 Rocket 4.4 18:41:17 10° NNW 18:45:33 53° W 18:49:49 10° S
SJ-6B 4.3 18:42:37 10° SSW 18:45:49 33° W 18:49:04 10° NNW
SKYMED 3 4.3 18:43:02 10° NNE 18:47:06 84° ESE 18:51:07 10° SSW
USA 276 1.5 18:49:54 10° WNW 18:51:47 44° N 18:53:05 15° E
PAYLOAD B 4.3 18:46:54 10° SSE 18:52:24 90° SW 18:57:58 10° NNW
Cosmos 1461 2.8 18:49:53 10° NW 18:53:57 88° SW 18:57:49 11° SE
Cosmos 1420 Rocket 4.0 18:48:50 10° S 18:53:58 66° ESE 18:59:10 10° NNE
Cosmos 2251 Rocket 3.7 18:50:13 10° NNW 18:55:31 78° WSW 19:00:50 10° SSE
Cosmos 1371 Rocket 4.2 18:52:43 10° S 18:57:40 49° ESE 19:02:41 10° NNE
CZ-4B R/B 3.3 18:54:42 10° SSE 18:59:33 82° ENE 19:04:20 10° NNW
Cosmos 2360 Rocket 3.0 18:57:51 10° SSE 19:02:39 29° ESE 19:07:27 10° NE
SL-4 R/B 2.3 19:02:53 10° SSW 19:05:51 30° SE 19:08:32 12° E
Cosmos 1954 Rocket 4.0 19:01:41 10° NNW 19:07:01 80° ENE 19:12:01 11° SSE
Cosmos 2056 Rocket 3.6 19:02:15 10° S 19:07:27 61° ESE 19:12:45 10° NNE
MetOp-B 4.3 19:03:26 10° SSE 19:08:35 58° ENE 19:13:51 10° N
Cosmos 2266 Rocket 4.2 19:03:15 10° N 19:09:07 50° ENE 19:14:24 13° SSE
Terra 2.5 19:07:27 15° SE 19:10:50 38° ENE 19:15:10 10° N
Cosmos 1300 Rocket 3.6 19:09:23 10° S 19:13:41 60° E 19:17:59 10° NNE
SL-08 R/B 4.0 19:10:01 10° N 19:14:47 61° WNW 19:19:35 10° SSW
Cosmos 1975 Rocket 3.3 19:10:42 10° N 19:14:58 50° ENE 19:18:10 17° SSE
Cosmos 1844 Rocket 2.7 19:10:55 10° NNW 19:16:37 82° ENE 19:21:20 15° SSE
SeaSat 1 3.1 19:13:28 10° SSE 19:18:16 54° WSW 19:23:06 10° NW
Helios 1B rocket 2.9 19:15:40 10° S 19:19:16 52° W 19:22:55 10° NNW
Cosmos 1624 Rocket 3.9 19:15:20 10° SSW 19:20:34 75° ESE 19:25:48 10° NNE
Cosmos 1818 4.3 19:15:21 10° NW 19:20:35 48° WSW 19:25:41 10° SSE
USA 245 4.2 19:24:07 14° NE 19:24:07 14° NE 19:25:06 10° NNE
ERS-1 Rocket 3.1 19:19:56 17° SE 19:23:45 58° ENE 19:28:40 10° N
DNEPR-1 R/B 4.5 19:19:57 10° NW 19:24:04 42° WSW 19:27:32 13° S
GEOS 3 Rocket 4.4 19:20:40 16° E 19:24:20 40° NE 19:29:06 10° NNW
SAR-Lupe-2 3.9 19:26:22 25° SE 19:28:06 48° ENE 19:31:35 10° N
Cosmos 2333 Rocket 2.3 19:23:49 10° S 19:29:22 53° ESE 19:34:59 10° NE
ATLAS 5 CENTAUR R/B 4.2 19:32:41 10° NW 19:34:05 12° NNW 19:35:33 10° N
Okean-O 2.5 19:31:36 20° SSE 19:34:36 75° ENE 19:38:59 10° N
Cosmos 1782 Rocket 3.6 19:30:39 10° SSW 19:35:05 82° W 19:39:31 10° N
SL-16 R/B 2.2 19:29:35 10° SSW 19:35:15 86° WNW 19:40:58 10° NNE
CZ-4B R/B 3.8 19:31:39 10° S 19:35:27 47° W 19:39:25 10° NNW
Cosmos 1900 4.2 19:33:51 10° SSW 19:38:44 83° SE 19:43:43 10° NE
CZ-4B R/B 4.1 19:34:14 10° S 19:39:42 50° W 19:45:13 10° NNW
Okean 2 Rocket 4.5 19:40:49 21° E 19:40:54 21° E 19:44:09 10° NE
Cosmos 2278 Rocket 4.2 19:38:45 10° N 19:42:26 17° NE 19:46:00 10° ENE
Cosmos 676 Rocket 4.3 19:38:13 10° NNW 19:43:32 67° WSW 19:47:28 18° S
Spot 2 Rocket 3.6 19:43:05 26° SE 19:45:44 57° ENE 19:50:41 10° N
Cosmos 2278 4.0 19:40:28 10° SW 19:46:08 70° WNW 19:51:50 10° NNE
USA 186 4.4 19:44:32 10° SW 19:46:14 15° W 19:47:56 10° NW
Cosmos 1844 3.9 19:42:27 10° NNW 19:48:00 67° WSW 19:51:45 21° S
Cosmos 371 Rocket 3.9 19:43:49 10° N 19:48:22 40° ENE 19:50:11 29° ESE
Cosmos 304 Rocket 4.5 19:44:11 10° N 19:48:37 38° ENE 19:50:21 28° ESE
Cosmos 968 Rocket 3.6 19:45:48 10° NNW 19:50:54 60° ENE 19:53:14 31° SE
SJ 16-02 1.2 19:47:23 10° NNW 19:51:44 79° ENE 19:53:31 35° SSE
SPOT 5 3.9 19:48:37 10° S 19:53:26 44° W 19:58:03 10° NNW
Cosmos 1606 3.2 19:54:30 32° ENE 19:54:30 32° ENE 19:56:49 10° NNE
USA 234 4.3 19:51:32 10° ENE 19:57:36 42° N 20:03:39 10° WNW
Cosmos 1666 4.0 19:58:05 10° NNE 19:59:11 17° NE 19:59:11 17° NE
Cosmos 1536 Rocket 4.0 19:59:07 10° N 20:03:20 43° ENE 20:04:10 39° ESE
CZ-4 R/B 4.4 20:03:09 10° WSW 20:04:05 11° W 20:05:00 10° WNW
Cosmos 2322 Rocket 2.2 19:59:16 10° SSW 20:04:58 83° WNW 20:10:43 10° NNE
Helios 1A 4.0 20:05:01 10° N 20:08:51 44° WNW 20:12:41 10° SW
Cosmos 2058 4.0 20:06:38 10° NNE 20:10:03 28° ENE 20:10:03 28° ENE
ATLAS 2AS CENTAUR R/B 2.7 20:04:40 10° NW 20:11:29 72° NE 20:14:39 33° ESE
Okean O Rocket 3.1 20:08:37 13° SSW 20:12:07 33° W 20:16:09 10° NNW
RESURS DK-1 4.5 20:10:39 10° WNW 20:13:38 20° WSW 20:15:55 13° SSW
Cosmos 2219 Rocket 2.1 20:14:17 23° S 20:17:52 63° ESE 20:23:29 10° NNE
Cosmos 1867 3.7 20:12:49 10° SW 20:18:17 78° NW 20:23:47 10° NE
Cosmos 1850 Rocket 3.9 20:13:28 10° NNW 20:18:43 83° WSW 20:20:34 41° SSE
Cosmos 1553 Rocket 4.5 20:18:12 36° ESE 20:19:51 42° E 20:25:49 10° NNE
Timation 2 Rocket 4.1 20:15:10 10° NNW 20:21:05 56° NE 20:23:11 37° ESE
Cosmos 44 2.9 20:17:06 10° SW 20:21:27 85° NW 20:25:48 10° NE
TIMED 4.3 20:17:58 10° NNW 20:22:17 89° W 20:23:01 61° SSE
Cosmos 1331 Rocket 3.9 20:22:38 19° SSW 20:26:30 89° ESE 20:31:49 10° NNE
CZ-4C R/B 3.9 20:22:22 10° W 20:26:38 31° NNW 20:31:54 10° NNE
CRYOSAT 2 4.3 20:26:33 52° SE 20:27:35 69° E 20:32:28 10° N
Cosmos 2333 4.2 20:22:35 10° SSW 20:28:22 86° WNW 20:34:11 10° NNE
Cosmos 1452 Rocket 3.4 20:27:58 25° SSW 20:31:07 88° ESE 20:36:25 10° NNE
COSMOS 2428 3.5 20:34:27 33° E 20:34:27 33° E 20:38:48 10° NE
Cosmos 1741 Rocket 4.3 20:31:44 10° NNW 20:36:57 63° WSW 20:38:33 42° SSW
PSLV R/B 4.4 20:40:38 40° W 20:40:38 40° W 20:43:21 10° NNW
Ariane Rocket 3.0 20:39:16 50° S 20:40:34 77° WSW 20:45:38 10° NNW
SL-4 R/B 2.6 20:40:18 10° W 20:42:44 42° W 20:42:44 42° W
Cosmos 2360 Rocket 3.0 20:40:53 10° SW 20:46:22 51° NW 20:51:53 10° NNE
Terra 3.4 20:46:06 19° SW 20:48:26 28° W 20:52:31 10° NW
Cosmos 332 Rocket 4.2 20:44:43 10° NNW 20:49:26 47° ENE 20:49:44 46° ENE
Cosmos 1943 Rocket 3.1 20:44:48 10° NNW 20:49:48 34° NE 20:51:02 31° ENE
Cosmos 2237 Rocket 4.0 20:52:54 16° ENE 20:52:54 16° ENE 20:54:43 10° NE
Sich 1 Rocket 3.5 20:51:08 79° SSW 20:51:25 88° W 20:56:00 10° N
DEBRIS 3.0 20:43:59 10° WNW 20:53:01 89° N 20:53:16 79° E
Okean 1 Rocket 3.0 20:53:40 75° NE 20:53:40 75° NE 20:57:45 10° NNE
Cosmos 1869 4.2 20:55:15 39° NNE 20:55:15 39° NNE 20:57:39 10° NNE
Cosmos 2151 Rocket 4.1 20:58:15 46° WSW 20:59:10 56° WNW 21:03:37 10° N
Cosmos 1455 Rocket 4.2 21:02:12 33° NE 21:02:12 33° NE 21:05:00 10° NNE
SPOT 3 Rocket 4.2 20:59:59 39° SW 21:01:20 49° W 21:06:23 10° NNW
GEOS 3 Rocket 3.9 21:01:43 48° SW 21:02:15 51° SW 21:07:14 10° NW
USA 32 4.3 20:58:11 10° NNW 21:03:21 62° W 21:04:27 50° SW
USA 267 4.0 20:57:31 10° ENE 21:01:37 33° E 21:01:37 33° E
Cosmos 489 Rocket 4.5 21:07:46 58° SE 21:08:13 60° ESE 21:14:28 10° NNE
Cosmos 2333 Rocket 3.9 21:08:50 10° WSW 21:13:56 32° NW 21:19:06 10° NNE
Okean 2 Rocket 4.0 21:18:02 40° W 21:18:35 42° WNW 21:22:45 10° N
Meteor 2-3 Rocket 3.6 21:18:57 10° N 21:24:34 73° ENE 21:24:43 72° E
Cosmos 1992 Rocket 4.2 21:25:33 59° ENE 21:25:33 59° ENE 21:29:57 10° NNE
Cosmos 2278 Rocket 2.1 21:21:53 10° NNW 21:27:34 71° ENE 21:27:49 70° E
SJ 16-02 3.9 21:27:44 10° WNW 21:29:14 12° W 21:30:07 11° WSW
Cosmos 2315 Rocket 4.2 21:30:21 52° E 21:30:25 52° E 21:36:33 10° NNE
S3M 3.8 21:34:38 73° SE 21:34:58 75° E 21:41:08 10° NNE
ALOS 2 4.1 21:40:12 29° NE 21:40:12 29° NE 21:43:13 10° N
USA 234 3.4 21:37:56 44° E 21:40:05 69° NNE 21:46:36 10° NW
COBE Rocket 4.4 21:38:30 10° NNE 21:42:07 51° NE 21:42:07 51° NE
Cosmos 1745 Rocket 4.0 21:46:47 10° NNW 21:52:51 65° W 21:53:20 63° WSW
Cosmos 1980 4.1 21:54:15 51° ENE 21:54:15 51° ENE 21:58:43 10° NNE
ARIANE 5 R/B 3.6 21:59:11 45° NNW 21:59:11 45° NNW 22:02:14 10° NNW
Cosmos 2285 Rocket 4.1 21:51:43 10° NNW 21:57:59 64° ENE 21:58:21 63° E
Meteor 2-20 Rocket 4.4 21:58:59 67° W 21:59:15 68° WNW 22:04:58 10° N
Cosmos 2322 4.4 22:00:01 38° W 22:01:38 48° NW 22:07:07 10° NNE
ATLAS 2AS CENTAUR R/B 3.8 21:56:15 10° WNW 22:01:48 28° WSW 22:02:04 28° WSW
Cosmos 2219 Rocket 4.0 21:57:25 10° WSW 22:02:14 28° NW 22:07:05 10° NNE
Spot 4 4.4 22:03:29 53° NNE 22:03:29 53° NNE 22:07:13 10° N
CENTAUR R/B 3.1 22:08:28 44° ENE 22:08:28 44° ENE 22:13:38 10° NE
Cosmos 2228 4.5 22:11:12 34° N 22:11:12 34° N 22:13:39 10° N
Cosmos 1486 Rocket 4.3 22:04:46 10° NNW 22:09:06 62° NNW 22:09:06 62° NNW
NOSS 0 Rocket 4.0 22:15:37 68° W 22:16:08 72° WNW 22:22:24 10° NNE
Cosmos 1709 Rocket 4.1 22:10:09 10° NNW 22:16:11 61° W 22:16:21 60° W
COSMOS 2428 3.6 22:16:22 37° W 22:17:49 44° NW 22:23:17 10° NNE
Cosmos 2184 Rocket 4.1 22:23:45 10° N 22:29:44 61° ENE 22:29:44 61° ENE
Cosmos 1943 Rocket 3.0 22:28:26 10° NW 22:32:31 39° WNW 22:32:31 39° WNW
Cosmos 2237 Rocket 2.4 22:34:40 67° NNW 22:34:40 67° NNW 22:39:51 10° NNE
USA 267 3.3 22:40:26 10° NE 22:46:58 75° NNW 22:48:56 48° WSW
SL-16 R/B 3.1 22:49:13 39° ENE 22:49:13 39° ENE 22:53:11 10° NE
Cosmos 2297 4.3 22:42:47 10° NNW 22:48:16 48° NE 22:48:20 48° ENE
Cosmos 2369 Rocket 2.9 22:45:45 10° NNW 22:51:17 47° NE 22:51:31 47° ENE
Cosmos 2074 Rocket 3.9 22:45:18 10° N 22:51:23 84° N 22:51:23 84° N
NOSS 3-2 (A) 4.1 22:58:19 41° ENE 22:58:19 41° ENE 23:02:28 10° NE
ATLAS 5 CENTAUR R/B 4.0 23:00:16 10° NNW 23:03:27 20° NNE 23:07:07 10° E
Cosmos 1656 Rocket 4.0 23:00:35 10° NNW 23:05:23 64° NNW 23:05:23 64° NNW
Cosmos 2278 Rocket 4.1 23:07:00 10° NW 23:09:38 19° W 23:09:38 19° W
Meteor 1-20 Rocket 4.4 23:13:21 10° NNW 23:18:01 65° NNW 23:18:01 65° NNW
USA 234 4.0 23:25:16 37° W 23:25:16 37° W 23:29:36 10° WNW
Cosmos 1898 Rocket 4.1 23:18:57 10° NNW 23:23:30 52° NE 23:23:30 52° NE
Cosmos 1937 Rocket 4.4 23:19:27 10° NNW 23:24:30 42° ENE 23:24:34 42° ENE
Cosmos 2341 Rocket 4.4 23:18:46 10° N 23:25:01 53° ENE 23:25:36 51° E
NOSS 3-2 (C) 4.3 23:26:50 34° E 23:26:50 34° E 23:30:51 10° NE
COSMOS 2455 3.9 23:26:59 33° E 23:26:59 33° E 23:31:22 10° NE
Cosmos 2058 Rocket 4.5 23:29:03 35° NE 23:29:03 35° NE 23:31:50 10° NNE
Nadezhda 1 Rocket 3.9 23:29:26 80° NNW 23:29:26 80° NNW 23:35:16 10° N
Cosmos 1763 Rocket 4.2 23:49:18 47° NW 23:49:18 47° NW 23:53:53 10° NNE
